TimeEST,TemperatureF,Dew PointF,Humidity,Sea Level PressureIn,VisibilityMPH,Wind Direction,Wind SpeedMPH,Gust SpeedMPH,PrecipitationIn,Events,Conditions,WindDirDegrees,DateUTC
12:53 AM,57.0,46.9,69,29.89,10.0,SSW,11.5,-,N/A,,Clear,210,2013-01-12 05:53:00
1:53 AM,55.9,48.0,75,29.89,10.0,SSW,10.4,-,N/A,,Clear,200,2013-01-12 06:53:00
2:53 AM,57.9,51.1,78,29.92,10.0,SSW,11.5,20.7,N/A,,Clear,210,2013-01-12 07:53:00
3:53 AM,55.9,51.1,84,29.92,10.0,SSW,9.2,-,N/A,,Clear,210,2013-01-12 08:53:00
4:53 AM,55.9,52.0,87,29.91,10.0,SSW,9.2,-,N/A,,Clear,210,2013-01-12 09:53:00
5:53 AM,55.9,52.0,87,29.91,10.0,SSW,9.2,-,N/A,,Clear,210,2013-01-12 10:53:00
6:36 AM,55.4,53.6,94,29.93,10.0,SW,8.1,-,N/A,,Mostly Cloudy,230,2013-01-12 11:36:00
6:53 AM,55.9,53.1,90,29.94,10.0,SW,6.9,-,N/A,,Scattered Clouds,220,2013-01-12 11:53:00
7:53 AM,55.0,52.0,89,29.96,10.0,SSW,9.2,-,N/A,,Partly Cloudy,200,2013-01-12 12:53:00
8:53 AM,55.0,53.1,93,29.98,10.0,SSW,6.9,-,N/A,,Scattered Clouds,210,2013-01-12 13:53:00
9:36 AM,55.4,53.6,94,29.99,10.0,SW,6.9,-,N/A,,Mostly Cloudy,220,2013-01-12 14:36:00
9:53 AM,57.0,54.0,89,29.98,10.0,SW,8.1,-,N/A,,Mostly Cloudy,220,2013-01-12 14:53:00
10:53 AM,60.1,54.0,80,29.99,10.0,WSW,12.7,-,N/A,,Mostly Cloudy,240,2013-01-12 15:53:00
11:53 AM,61.0,55.0,81,29.97,10.0,West,5.8,-,N/A,,Mostly Cloudy,260,2013-01-12 16:53:00
12:00 PM,62.6,55.4,77,29.98,10.0,WSW,6.9,-,N/A,,Mostly Cloudy,240,2013-01-12 17:00:00
12:53 PM,61.0,53.1,75,29.95,10.0,Calm,Calm,-,N/A,,Mostly Cloudy,0,2013-01-12 17:53:00
1:36 PM,62.6,53.6,72,29.94,10.0,SSW,5.8,-,N/A,,Scattered Clouds,200,2013-01-12 18:36:00
1:53 PM,63.0,54.0,72,29.94,10.0,South,8.1,-,N/A,,Mostly Cloudy,190,2013-01-12 18:53:00
2:50 PM,62.6,53.6,72,29.92,10.0,SE,5.8,-,N/A,,Scattered Clouds,130,2013-01-12 19:50:00
2:53 PM,64.0,54.0,70,29.91,10.0,SE,8.1,-,N/A,,Scattered Clouds,140,2013-01-12 19:53:00
3:53 PM,62.1,54.0,75,29.89,10.0,East,4.6,-,N/A,,Overcast,100,2013-01-12 20:53:00
4:53 PM,60.1,54.0,80,29.87,4.0,East,3.5,-,0.01,Rain,Light Rain,90,2013-01-12 21:53:00
5:43 PM,57.2,55.4,94,29.86,1.8,NNE,5.8,-,0.12,Rain,Heavy Rain,30,2013-01-12 22:43:00
5:53 PM,57.9,55.9,93,29.86,1.8,Calm,Calm,-,0.19,Rain,Rain,0,2013-01-12 22:53:00
6:04 PM,57.2,55.4,94,29.87,1.8,NW,5.8,-,0.07,Rain,Heavy Rain,310,2013-01-12 23:04:00
6:08 PM,57.2,55.4,94,29.86,2.0,NE,5.8,-,0.10,Rain,Heavy Rain,50,2013-01-12 23:08:00
6:26 PM,57.2,55.4,94,29.85,1.8,North,3.5,-,0.22,Rain,Heavy Rain,350,2013-01-12 23:26:00
6:46 PM,57.2,55.4,94,29.83,2.0,North,8.1,-,0.36,Rain,Heavy Rain,350,2013-01-12 23:46:00
6:53 PM,57.0,55.9,96,29.83,2.0,North,8.1,-,0.42,Rain,Heavy Rain,360,2013-01-12 23:53:00
7:00 PM,57.2,55.4,94,29.83,1.5,North,9.2,-,0.08,Rain,Heavy Rain,10,2013-01-13 00:00:00
7:25 PM,57.2,55.4,94,29.82,3.0,North,8.1,-,0.19,Rain,Light Rain,360,2013-01-13 00:25:00
8:00 PM,57.2,55.4,94,29.78,7.0,ENE,9.2,-,N/A,,Overcast,70,2013-01-13 01:00:00
8:09 PM,57.2,55.4,94,29.78,2.0,Variable,6.9,-,0.05,Rain,Heavy Rain,0,2013-01-13 01:09:00
8:16 PM,57.2,55.4,94,29.79,1.0,North,6.9,-,0.17,Rain,Heavy Rain,10,2013-01-13 01:16:00
8:28 PM,57.2,57.2,100,29.78,2.0,North,3.5,-,0.26,Rain,Light Rain,350,2013-01-13 01:28:00
8:53 PM,57.9,55.9,93,29.76,3.0,East,5.8,-,0.30,Rain,Light Rain,90,2013-01-13 01:53:00
9:12 PM,57.2,55.4,94,29.76,3.0,SE,4.6,-,0.02,Rain,Light Rain,130,2013-01-13 02:12:00
9:51 PM,62.6,60.8,94,29.74,10.0,South,11.5,-,0.04,Rain,Light Rain,190,2013-01-13 02:51:00
9:53 PM,62.1,60.1,93,29.73,10.0,South,13.8,-,0.04,Rain,Light Rain,180,2013-01-13 02:53:00
10:53 PM,64.9,61.0,87,29.70,10.0,South,17.3,26.5,0.00,,Overcast,190,2013-01-13 03:53:00
11:53 PM,64.9,61.0,87,29.67,10.0,South,10.4,19.6,N/A,,Overcast,170,2013-01-13 04:53:00